Location: Observatoire
(46.1952°N, 5.3391°E)
Time: 21:45:46
(UTC+02:00)

N. Korean satellite - Visible Passes

Search period start: 24 September 2021 00:00
Search period end: 04 October 2021 00:00
Orbit: 448 x 498 km, 97.3° (Epoch: 23 September)

Date Brightness Start Highest point End Pass type
(mag) Time Alt. Az. Time Alt. Az. Time Alt. Az.
24 Sep 9.7 06:01:29 10° NE 06:03:41 15° E 06:05:53 10° SE visible
26 Sep 8.0 06:38:08 10° NNE 06:41:32 42° E 06:44:58 10° S visible
27 Sep 9.5 06:10:54 10° NE 06:13:36 20° E 06:16:20 10° SE visible
29 Sep 7.3 06:47:49 10° NNE 06:51:22 57° E 06:54:55 10° S visible
30 Sep 9.0 06:20:22 10° NE 06:23:27 26° E 06:26:32 10° SSE visible
01 Oct 9.9 05:53:41 10° ENE 05:55:24 13° E 05:57:08 10° ESE visible
02 Oct 6.8 06:57:29 10° NNE 07:01:05 77° ESE 07:04:43 10° S visible
03 Oct 8.5 06:29:51 10° NNE 06:33:11 34° E 06:36:31 10° SSE visible
